Regional Weather Roundup
Issued by NWS

Home | Current Version | Previous Version | Graphics & Text | Print | Product List | Glossary On
Versions: 1 2 3 4 5 6 7 8 9 10 11 12 13 14 15 16 17 18 19 20 21 22 23 24 25 26 27 28 29 30 31 32 33 34 35 36 37 38 39 40 41 42 43 44 45 46 47 48 49 50
000
ASUS43 KOAX 051710
RWRNE

WEATHER ROUNDUP FOR NEBRASKA
NATIONAL WEATHER SERVICE OMAHA NE
1100 AM CST MON DEC 05 2016

NOTES: SATELLITE DATA IS BEING USED TO AUGMENT CLOUD COVER ABOVE
       12000 FEET.
       "FAIR" INDICATES FEW OR NO CLOUDS BELOW 12,000 FEET WITH NO
       SIGNIFICANT WEATHER AND/OR OBSTRUCTIONS TO VISIBILITY.

  * THESE STATIONS DO NOT REPORT WEATHER SUCH AS RAIN...SNOW OR FOG.

NEZ001>004-019>022-054>056-051800-
NEBRASKA PANHANDLE

CITY           SKY/WX    TMP DP  RH WIND       PRES   REMARKS
SCOTTSBLUFF    MOSUNNY   47  25  42 W25G47    29.59R
ALLIANCE       MOSUNNY   40  26  57 N21       29.58  WCI  30
CHADRON        LGT SNOW  34  27  75 NW9       29.64  WCI  27
KIMBALL        PTSUNNY   47  25  41 W22G29    29.62R
SIDNEY         CLOUDY    48  25  40 W10       29.60
$$

NEZ057>060-069>072-079>082-051800-
SOUTHWEST NEBRASKA

CITY           SKY/WX    TMP DP  RH WIND       PRES   REMARKS
NORTH PLATTE   CLOUDY    38  23  55 SE5       29.59F WCI  34
IMPERIAL       CLOUDY    44  19  36 W5        29.59
LEXINGTON      CLOUDY    41  24  51 SW5       29.61S
MCCOOK         SUNNY     40  22  48 VRB3      29.61
OGALLALA       CLOUDY    40  23  49 W3        29.60R
$$

NEZ005>010-023>029-035>040-094-051800-
NORTH CENTRAL NEBRASKA

CITY           SKY/WX    TMP DP  RH WIND       PRES   REMARKS
VALENTINE      SUNNY     41  23  48 NW22G29   29.54
AINSWORTH      SUNNY     51  27  39 W16       29.50R
BROKEN BOW     MOSUNNY   42  25  50 S7        29.57
O`NEILL        PTSUNNY   46  27  47 S13       29.52S
ORD            MOSUNNY   41  24  51 S10       29.57S
THEDFORD       MOSUNNY   55  27  34 W13G24    29.55R
$$

NEZ041-046>049-061>064-073>077-083>087-051800-
SOUTH CENTRAL NEBRASKA

CITY           SKY/WX    TMP DP  RH WIND       PRES   REMARKS
GRAND ISLAND   MOSUNNY   41  30  65 S14       29.63F
AURORA         MOSUNNY   40  32  72 S15       29.63F WCI  32
HASTINGS       MOSUNNY   42  30  62 S14       29.64S
HEBRON         SUNNY     40  32  71 S10       29.68F WCI  34
HOLDREGE       CLOUDY    42  27  54 SW8       29.62R
KEARNEY *      SUNNY     43  27  52 SW10      29.62R
YORK           PTSUNNY   41  32  70 S21       29.66R
$$

NEZ011>018-030>034-042>045-051800-
NORTHEAST NEBRASKA

CITY           SKY/WX    TMP DP  RH WIND       PRES   REMARKS
NORFOLK        CLOUDY    41  29  62 S9        29.60S
ALBION         CLOUDY    40  29  64 S13       29.59F WCI  33
BLAIR          MOSUNNY   42  33  71 S18G28    29.69F
FREMONT        CLOUDY    39  32  75 S12G18    29.69S WCI  32
TEKAMAH        PTSUNNY   39  32  76 S18       29.68F WCI  30
WAYNE          CLOUDY    42  31  65 S22       29.59F
$$

NEZ050>053-065>068-078-088>093-051800-
SOUTHEAST NEBRASKA

CITY           SKY/WX    TMP DP  RH WIND       PRES   REMARKS
LINCOLN        SUNNY     42  33  70 S18       29.70F
OMAHA EPPLEY   PTSUNNY   43  33  68 S17       29.73F
BEATRICE       SUNNY     47  34  60 S18G25    29.71F
FALLS CITY     SUNNY     46  37  71 S17       29.78F
NEBRASKA CITY  SUNNY     44  33  65 S15       29.75F
PLATTSMOUTH    SUNNY     44  32  63 S18G24    29.74F
$$

NEZ044-045-051>053-067-051800-
OMAHA AREA

CITY           SKY/WX    TMP DP  RH WIND       PRES   REMARKS
OMAHA EPPLEY   PTSUNNY   43  33  68 S17       29.73F
BLAIR          MOSUNNY   42  33  71 S18G28    29.69F
FREMONT        CLOUDY    39  32  75 S12G18    29.69S WCI  32
MILLARD        MOSUNNY   43  34  70 SE10      29.72F
OFFUTT AFB     PTSUNNY   44  37  76 S15       29.73F
PLATTSMOUTH    SUNNY     44  32  63 S18G24    29.74F
WAHOO          FAIR      40  33  75 S13       29.69F WCI  33
$$




USA.gov is the U.S. government's official web portal to all federal, state and local government web resources and services.